Regional Weather Roundup
Issued by NWS Midland/Odessa, TX

Skip options and go directly to product.
Home | Oldest Version | Previous Version | Current Version | All | Text Only | Save Text | Print | Product List | Glossary Off

Skip product version selection by date and time.   

139
ASUS44 KMAF 080001
RWRMAF
MIDLAND AREA WEATHER ROUNDUP
NATIONAL WEATHER SERVICE MIDLAND TX
600 PM CST SUN FEB 07 2016

...IN SOUTHWEST TEXAS AND SOUTHEAST NEW MEXICO...

CITY           SKY/WX    TMP DP  RH WIND       PRES   REMARKS
ALPINE         CLOUDY    65   9  11 NE10      30.24S
ANDREWS        FAIR      62  17  17 NE9       30.17R
ARTESIA        CLOUDY    64  21  19 NE5       30.18R
BIG SPRING     CLEAR     61  18  18 N14G22    30.18R
CARLSBAD       CLOUDY    63  19  18 NW8       30.16R
DRYDEN           N/A     71  15  11 S7        30.09R
FORT STOCKTON  CLOUDY    66  18  15 NW6       30.17R
GUAD PASS      CLOUDY    58  10  15 S3        30.25R
HOBBS          CLEAR     63  16  16 NE8       30.19R
MARFA          CLOUDY    61   5  10 NW10      30.22R
MIDLAND AIRPK  CLEAR     67  15  13 NE13      30.15R
MIDLAND INTL   CLEAR     64  18  17 NE10      30.16R
ODESSA         CLOUDY    63  19  18 NE6       30.17R
PECOS          CLOUDY    69  21  16 W3        30.14S
PRESIDIO       FAIR      67  10  11 SE7       30.15R
SEMINOLE       CLOUDY    62  19  19 NE9       30.18R
SNYDER           N/A     59  21  23 NE12      30.19R
WINK           CLOUDY    67  20  16 NE9       30.15R
$$
...OTHER STATIONS IN TEXAS...

CITY           SKY/WX    TMP DP  RH WIND       PRES   REMARKS
ABILENE        CLEAR     57  24  28 N16       30.15R
AMARILLO       CLEAR     50  20  30 N15       30.25R
AUSTIN         PTCLDY    61  32  33 S8        30.11R
BROWNSVILLE    CLOUDY    63  43  48 SE8       30.17R
CORPUS CHRISTI MOCLDY    63  38  39 SE18      30.13S
DALLAS FTW     PTCLDY    59  31  34 N7        30.11R
DEL RIO        CLOUDY    68  19  15 SE3       30.10R
EL PASO        CLOUDY    62  11  13 CALM      30.21R
HOUSTON INT    PTCLDY    61  42  49 S7        30.14S
LUBBOCK        PTCLDY    57  20  23 NE14      30.20R
SAN ANGELO     CLEAR     65  21  18 N9        30.11R
SAN ANTONIO    MOCLDY    64  29  26 W5        30.12R
WACO           CLEAR     58  36  43 SE8       30.10R
WICHITA FALLS  NOT AVBL
$$
...OTHER LOCATIONS IN NEW MEXICO...

CITY           SKY/WX    TMP DP  RH WIND       PRES   REMARKS
ALAMAGORDO     CLOUDY    64  14  14 NW10G20   30.20R
ALBUQUERQUE    CLEAR     55  17  22 N12       30.30R
CANNON AFB     CLEAR     55  19  24 NE7       30.23R
CLOVIS         CLEAR     55  19  24 NE7       30.24S
HOLLOMAN AFB   CLOUDY    64  15  15 NW17      30.19R
ROSWELL        CLEAR     63  19  18 E6        30.18R
RUIDOSO        CLOUDY    52  10  19 NW7       30.30R
SANTA FE       CLEAR     50  14  23 NW12      30.28R
TRUTH OR CONSE PTCLDY    61  14  16 E5        30.23R
TUCUMCARI      CLEAR     57  17  21 E5        30.22R
$$

USA.gov is the U.S. government's official web portal to all federal, state and local government web resources and services.